sat.trackr.live / text

‹ back to catalog

ONEWEB-0527

NORAD 54642 · 2022-166A

PAYLOAD ACTIVE UNKNOWN

§ Identity

Operator
Country
UK
Launch date
2022-12-08
Launch site
AFETR
Launch vehicle
Mass (kg)
RCS (m²)

Purposes: comms

External: N2YO · Heavens-Above · Gunter

§ Orbital elements

Epoch: 2026-05-25T00:10:59.149056Z

Period
108.94 min
Inclination
87.9251°
Eccentricity
0.0001942
Mean motion
13.21827888 rev/d
Perigee alt
1,176.3 km
Apogee alt
1,179.2 km
Semi-major
7,555.9 km
B*
1.1626e-4
RAAN
248.6069°
Arg perigee
102.0067°
Mean anomaly
258.1285°
Rev number
16,847

§ Raw data

ONEWEB-05271 54642U 22166A   26145.00762904  .00000061  00000+0  11626-3 0  99992 54642  87.9251 248.6069 0001942 102.0067 258.1285 13.21827888168477

JSON: /api/v1/satellites/54642 · /tle

For live sub-satellite position, see the globe view (requires WebGL).

§ Visibility from observer

Set your observer location to see the next 7 days of passes ≥ 10°. The values pass through the URL so the page stays shareable.

No JS? Fill the form by hand. The geolocation button needs JavaScript.